This demonstration page uses our WeatherBlox Daily Observations layout. Learn more.

Left ArrowRight Arrow

Hourly Observations for September 23, 2022

Temp ( °F °C ) Dew Point ( °F °C ) Humidity (%) Winds ( mph kmh ) Pressure ( in mb ) Visibility ( mi km ) Precip ( " mm )
12:54 am 00:54 Cloudy 57 13.9 45 7.2 64 64 SSE 10 17 30.15 1021 10 16 0.00 0.00
1:54 am 01:54 Cloudy with Light Rain 57 13.9 46 7.8 67 67 S 8 13 30.15 1021 10 16 0.01 0.13
2:54 am 02:54 Cloudy 55 12.8 47 8.3 74 74 S 9 15 30.14 1021 10 16 0.01 0.13
3:54 am 03:54 Cloudy 53 11.7 49 9.4 86 86 S 3 6 30.12 1020 10 16 0.05 1.27
4:54 am 04:54 Cloudy 54 12.2 49 9.4 83 83 S 10 17 30.09 1019 10 16 0.00 0.00
5:54 am 05:54 Cloudy with Light Rain 54 12.2 49 9.4 83 83 SSE 7 11 30.09 1019 10 16 0.01 0.25
6:54 am 06:54 Cloudy 54 12.2 50 10 86 86 SSE 5 7 30.09 1019 10 16 0.01 0.25
7:54 am 07:54 Cloudy 55 12.8 49 9.4 80 80 SE 10 17 30.07 1018 10 16 0.00 0.00
8:54 am 08:54 Cloudy 56 13.3 49 9.4 77 77 SSE 10 17 30.05 1018 10 16 0.00 0.00
9:54 am 09:54 Cloudy 59 15 50 10 72 72 S 14 22 30.03 1017 10 16 0.00 0.00
10:54 am 10:54 Cloudy 59 15 51 10.6 75 75 S 16 26 30.02 1017 10 16 0.00 0.00
11:54 am 11:54 Mostly Cloudy 61 16.1 51 10.6 70 70 S 16 26 29.99 1016 10 16 0.00 0.00
12:11 pm 12:11 Cloudy 61 16.1 52 11.1 72 72 S 20 31 29.98 1015 10 16 0.00 0.00
12:54 pm 12:54 Cloudy 60 15.6 52 11.1 75 75 S 15 24 29.99 1016 10 16 0.00 0.00
1:54 pm 13:54 Cloudy 62 16.7 53 11.7 72 72 S 15 24 29.95 1014 10 16 0.00 0.00
2:20 pm 14:20 Cloudy 62 16.7 53 11.7 72 72 S 15 24 29.93 1014 10 16 0.00 0.00
2:54 pm 14:54 Cloudy 63 17.2 53 11.7 70 70 S 12 19 29.92 1013 10 16 0.00 0.00
3:54 pm 15:54 Cloudy 63 17.2 53 11.7 70 70 SW 10 17 29.92 1013 10 16 0.00 0.00
4:54 pm 16:54 Cloudy 65 18.3 54 12.2 68 68 SW 8 13 29.91 1013 10 16 0.00 0.00
5:45 pm 17:45 Mostly Sunny 66 18.9 54 12.2 65 65 S 12 19 29.88 1012 10 16 0.00 0.00
5:54 pm 17:54 Mostly Sunny 65 18.3 54 12.2 68 68 S 8 13 29.90 1012 10 16 0.00 0.00
6:54 pm 18:54 Sunny 63 17.2 54 12.2 72 72 S 9 15 29.89 1012 10 16 0.00 0.00
7:54 pm 19:54 Clear 60 15.6 54 12.2 80 80 SSE 10 17 29.91 1013 10 16 0.00 0.00
8:54 pm 20:54 Clear 57 13.9 53 11.7 87 87 S 8 13 29.93 1014 10 16 0.00 0.00
9:54 pm 21:54 Clear 56 13.3 53 11.7 90 90 SSE 7 11 29.94 1014 10 16 0.00 0.00
10:54 pm 22:54 Clear 56 13.3 54 12.2 93 93 S 8 13 29.94 1014 10 16 0.00 0.00
11:54 pm 23:54 Clear 55 12.8 52 11.1 89 89 S 5 7 29.94 1014 9 14 0.00 0.00

Powered by AerisWeather